| time (UTC) | temp F | wind direction | speed knots | gust knots | rain 1hr in | rain 24hr in | rain mn in | humidity % | barometer mb |
| 20260505185855 | 45 | 8 | 3.5 | 10.4 | 0.00 | 0.00 | 0.00 | 77 | 1014.6 |
| 20260505185355 | 46 | 26 | 5.2 | 11.3 | 0.00 | 0.00 | 0.00 | 77 | 1014.6 |
| 20260505183855 | 46 | 34 | 5.2 | 10.4 | 0.00 | 0.00 | 0.00 | 76 | 1014.5 |
| 20260505183355 | 46 | 15 | 5.2 | 10.4 | 0.00 | 0.00 | 0.00 | 76 | 1014.5 |
| 20260505182855 | 46 | 34 | 4.3 | 13.0 | 0.00 | 0.00 | 0.00 | 75 | 1014.4 |
| 20260505181354 | 47 | 20 | 4.3 | 11.3 | 0.00 | 0.00 | 0.00 | 77 | 1014.4 |
| 20260505180856 | 47 | 17 | 4.3 | 7.8 | 0.00 | 0.00 | 0.00 | 77 | 1014.3 |
| 20260505180355 | 47 | 21 | 3.5 | 7.0 | 0.00 | 0.00 | 0.00 | 77 | 1014.3 |
| 20260505175855 | 47 | 353 | 4.3 | 10.4 | 0.00 | 0.00 | 0.00 | 77 | 1014.3 |
| 20260505175355 | 47 | 17 | 4.3 | 10.4 | 0.00 | 0.00 | 0.00 | 77 | 1014.2 |
| 20260505174354 | 47 | 10 | 3.5 | 12.2 | 0.00 | 0.00 | 0.00 | 77 | 1014.2 |
| 20260505173855 | 48 | 358 | 4.3 | 10.4 | 0.00 | 0.00 | 0.00 | 77 | 1014.3 |
| 20260505173355 | 48 | 8 | 5.2 | 10.4 | 0.00 | 0.00 | 0.00 | 76 | 1014.2 |
| 20260505172855 | 48 | 0 | 4.3 | 8.7 | 0.00 | 0.00 | 0.00 | 76 | 1014.2 |
| 20260505172355 | 48 | 5 | 2.6 | 8.7 | 0.00 | 0.00 | 0.00 | 76 | 1014.3 |
| 20260505171855 | 48 | 26 | 2.6 | 8.7 | 0.00 | 0.00 | 0.00 | 76 | 1014.3 |
| 20260505171354 | 49 | 4 | 2.6 | 8.7 | 0.00 | 0.00 | 0.00 | 75 | 1014.2 |
| 20260505170854 | 49 | 7 | 5.2 | 10.4 | 0.00 | 0.00 | 0.00 | 74 | 1014.3 |
| 20260505170355 | 49 | 5 | 6.1 | 12.2 | 0.00 | 0.00 | 0.00 | 74 | 1014.3 |
| 20260505165856 | 49 | 358 | 3.5 | 7.8 | 0.00 | 0.00 | 0.00 | 74 | 1014.3 |
| 20260505163854 | 50 | 38 | 2.6 | 8.7 | 0.00 | 0.00 | 0.00 | 74 | 1014.2 |
| 20260505163355 | 50 | 27 | 2.6 | 7.8 | 0.00 | 0.00 | 0.00 | 75 | 1014.2 |
| 20260505162855 | 50 | 9 | 2.6 | 6.1 | 0.00 | 0.00 | 0.00 | 74 | 1014.2 |
| 20260505162354 | 50 | 1 | 4.3 | 10.4 | 0.00 | 0.00 | 0.00 | 74 | 1014.2 |
| 20260505161354 | 50 | 18 | 4.3 | 7.8 | 0.00 | 0.00 | 0.00 | 74 | 1014.1 |
| 20260505160855 | 50 | 5 | 2.6 | 5.2 | 0.00 | 0.00 | 0.00 | 74 | 1014.1 |
| 20260505160355 | 50 | 29 | 2.6 | 7.0 | 0.00 | 0.00 | 0.00 | 74 | 1014.1 |
| 20260505152855 | 50 | 18 | 1.7 | 7.0 | 0.00 | 0.00 | 0.00 | 75 | 1014.0 |
| 20260505152355 | 50 | 19 | 3.5 | 8.7 | 0.00 | 0.00 | 0.00 | 74 | 1014.0 |
| 20260505151855 | 51 | 23 | 2.6 | 5.2 | 0.00 | 0.00 | 0.00 | 75 | 1014.0 |
| 20260505151357 | 51 | 350 | 2.6 | 7.0 | 0.00 | 0.00 | 0.00 | 75 | 1014.0 |
| 20260505150855 | 51 | 24 | 0.9 | 7.0 | 0.00 | 0.00 | 0.00 | 76 | 1013.9 |
| 20260505150355 | 51 | 26 | 1.7 | 4.3 | 0.00 | 0.00 | 0.00 | 76 | 1013.9 |
| 20260505140355 | 53 | 15 | 3.5 | 8.7 | 0.00 | 0.00 | 0.00 | 73 | 1013.6 |
| 20260505124854 | 53 | 266 | 0.9 | 2.6 | 0.00 | 0.00 | 0.00 | 63 | 1013.6 |
| 20260505124355 | 53 | 272 | 1.7 | 4.3 | 0.00 | 0.00 | 0.00 | 64 | 1013.6 |
| 20260505123854 | 53 | 302 | 1.7 | 4.3 | 0.00 | 0.00 | 0.00 | 67 | 1013.6 |
| 20260505123355 | 53 | 260 | 1.7 | 7.8 | 0.00 | 0.00 | 0.00 | 67 | 1013.6 |
| 20260505122855 | 52 | 229 | 1.7 | 4.3 | 0.00 | 0.00 | 0.00 | 65 | 1013.6 |
| 20260505122355 | 52 | 249 | 1.7 | 2.6 | 0.00 | 0.00 | 0.00 | 65 | 1013.6 |
| 20260505121355 | 52 | 267 | 0.0 | 2.6 | 0.00 | 0.00 | 0.00 | 66 | 1013.7 |
| 20260505120855 | 52 | 236 | 0.9 | 2.6 | 0.00 | 0.00 | 0.00 | 65 | 1013.7 |
| 20260505120355 | 52 | 263 | 1.7 | 2.6 | 0.00 | 0.00 | 0.00 | 65 | 1013.7 |
| 20260505115855 | 52 | 260 | 2.6 | 5.2 | 0.00 | 0.00 | 0.00 | 66 | 1013.7 |
| 20260505115355 | 52 | 258 | 1.7 | 5.2 | 0.00 | 0.00 | 0.00 | 67 | 1013.7 |
| 20260505114854 | 52 | 262 | 1.7 | 4.3 | 0.00 | 0.00 | 0.00 | 66 | 1013.7 |
| 20260505114355 | 52 | 228 | 2.6 | 5.2 | 0.00 | 0.00 | 0.00 | 67 | 1013.7 |
| 20260505113855 | 52 | 245 | 2.6 | 6.1 | 0.00 | 0.00 | 0.00 | 68 | 1013.7 |
| 20260505113354 | 52 | 236 | 3.5 | 6.1 | 0.00 | 0.00 | 0.00 | 68 | 1013.8 |
| 20260505112355 | 51 | 263 | 0.9 | 4.3 | 0.00 | 0.00 | 0.00 | 71 | 1013.9 |
| 20260505111855 | 51 | 277 | 1.7 | 5.2 | 0.00 | 0.00 | 0.00 | 70 | 1013.9 |
| 20260505110855 | 51 | 277 | 1.7 | 2.6 | 0.00 | 0.00 | 0.00 | 70 | 1013.8 |
| 20260505110354 | 51 | 275 | 0.9 | 2.6 | 0.00 | 0.00 | 0.00 | 73 | 1013.9 |
| 20260505101355 | 50 | 286 | 0.9 | 2.6 | 0.00 | 0.00 | 0.00 | 74 | 1014.0 |
| 20260505100356 | 50 | 297 | 0.9 | 2.6 | 0.00 | 0.00 | 0.00 | 74 | 1014.0 |
| 20260505095855 | 50 | 278 | 0.9 | 2.6 | 0.00 | 0.00 | 0.00 | 75 | 1014.0 |
| 20260505095354 | 50 | 342 | 0.9 | 2.6 | 0.00 | 0.00 | 0.00 | 74 | 1014.0 |
| 20260505094855 | 50 | 298 | 0.9 | 2.6 | 0.00 | 0.00 | 0.00 | 74 | 1014.0 |
| 20260505093855 | 50 | 278 | 1.7 | 5.2 | 0.00 | 0.00 | 0.00 | 74 | 1014.0 |
| 20260505093354 | 50 | 317 | 0.9 | 1.7 | 0.00 | 0.00 | 0.00 | 73 | 1014.0 |
| 20260505092354 | 50 | 304 | 1.7 | 2.6 | 0.00 | 0.00 | 0.00 | 72 | 1014.1 |
| 20260505085855 | 50 | 239 | 1.7 | 5.2 | 0.00 | 0.00 | 0.00 | 73 | 1014.0 |
| 20260505085354 | 50 | 256 | 2.6 | 5.2 | 0.00 | 0.00 | 0.00 | 73 | 1014.0 |
| 20260505084854 | 50 | 270 | 2.6 | 6.1 | 0.00 | 0.00 | 0.00 | 74 | 1014.0 |
| 20260505084354 | 50 | 254 | 1.7 | 5.2 | 0.00 | 0.00 | 0.00 | 76 | 1014.0 |
| 20260505083855 | 50 | 267 | 1.7 | 2.6 | 0.00 | 0.00 | 0.00 | 76 | 1014.0 |
| 20260505083355 | 49 | 284 | 1.7 | 2.6 | 0.00 | 0.00 | 0.00 | 77 | 1014.0 |
| 20260505082854 | 49 | 251 | 2.6 | 6.1 | 0.00 | 0.00 | 0.00 | 78 | 1014.0 |
| 20260505082354 | 48 | 260 | 0.9 | 4.3 | 0.00 | 0.00 | 0.00 | 79 | 1014.0 |
| 20260505081855 | 48 | 264 | 1.7 | 2.6 | 0.00 | 0.00 | 0.00 | 80 | 1014.1 |
| 20260505080854 | 48 | 254 | 2.6 | 4.3 | 0.00 | 0.00 | 0.00 | 79 | 1014.0 |
| 20260505080354 | 48 | 284 | 2.6 | 5.2 | 0.00 | 0.00 | 0.00 | 79 | 1014.0 |
| 20260505075854 | 48 | 256 | 1.7 | 6.1 | 0.00 | 0.00 | 0.00 | 80 | 1014.0 |
| 20260505075354 | 47 | 247 | 1.7 | 4.3 | 0.00 | 0.00 | 0.00 | 80 | 1014.1 |
| 20260505074855 | 47 | 252 | 1.7 | 2.6 | 0.00 | 0.00 | 0.00 | 79 | 1014.1 |
| 20260505074354 | 47 | 252 | 1.7 | 5.2 | 0.00 | 0.00 | 0.00 | 78 | 1014.0 |
| 20260505073854 | 47 | 261 | 2.6 | 2.6 | 0.00 | 0.00 | 0.00 | 80 | 1014.0 |
| 20260505073354 | 47 | 277 | 1.7 | 2.6 | 0.00 | 0.00 | 0.00 | 80 | 1014.0 |
| 20260505072854 | 46 | 262 | 0.9 | 2.6 | 0.00 | 0.00 | 0.00 | 81 | 1014.0 |
| 20260505071854 | 46 | 277 | 1.7 | 2.6 | 0.00 | 0.00 | 0.00 | 83 | 1014.0 |
| 20260505071354 | 45 | 288 | 1.7 | 4.3 | 0.00 | 0.00 | 0.00 | 85 | 1014.1 |
| 20260505070855 | 45 | 306 | 0.9 | 1.7 | 0.00 | 0.00 | 0.00 | 85 | 1014.1 |
| 20260505065854 | 44 | 306 | 0.9 | 2.6 | 0.00 | 0.00 | 0.00 | 87 | 1014.2 |
| 20260505065354 | 44 | 306 | 0.9 | 1.7 | 0.00 | 0.00 | 0.00 | 87 | 1014.3 |
| 20260505064354 | 43 | 303 | 0.9 | 1.7 | 0.00 | 0.00 | 0.00 | 87 | 1014.4 |
| 20260505063854 | 43 | 303 | 0.9 | 2.6 | 0.00 | 0.00 | 0.00 | 88 | 1014.3 |
| 20260505063354 | 43 | 303 | 0.0 | 0.9 | 0.00 | 0.00 | 0.00 | 88 | 1014.3 |
| 20260505062854 | 42 | 303 | 0.9 | 1.7 | 0.00 | 0.00 | 0.00 | 88 | 1014.3 |
| 20260505062354 | 42 | 303 | 0.0 | 2.6 | 0.00 | 0.00 | 0.00 | 88 | 1014.3 |
| 20260505061855 | 42 | 299 | 0.9 | 1.7 | 0.00 | 0.00 | 0.00 | 89 | 1014.3 |
| 20260505061354 | 42 | 248 | 0.9 | 2.6 | 0.00 | 0.00 | 0.00 | 89 | 1014.2 |
| 20260505055354 | 41 | 322 | 0.9 | 1.7 | 0.00 | 0.00 | 0.00 | 89 | 1014.1 |
| 20260505054854 | 41 | 322 | 0.9 | 0.9 | 0.00 | 0.00 | 0.00 | 89 | 1014.1 |
| 20260505053854 | 40 | 322 | 0.9 | 0.9 | 0.00 | 0.00 | 0.00 | 90 | 1014.1 |
| 20260505053354 | 40 | 322 | 0.9 | 0.9 | 0.00 | 0.00 | 0.00 | 90 | 1014.0 |
| 20260505052854 | 40 | 322 | 0.9 | 1.7 | 0.00 | 0.00 | 0.00 | 90 | 1014.0 |
| 20260505052354 | 40 | 322 | 0.9 | 0.9 | 0.00 | 0.00 | 0.00 | 90 | 1013.9 |
| 20260505051855 | 40 | 322 | 0.9 | 0.9 | 0.00 | 0.00 | 0.00 | 90 | 1013.9 |
| 20260505051354 | 40 | 322 | 0.9 | 1.7 | 0.00 | 0.00 | 0.00 | 90 | 1013.9 |
| 20260505050354 | 40 | 322 | 0.9 | 1.7 | 0.00 | 0.00 | 0.00 | 90 | 1013.9 |
| 20260505041354 | 40 | 325 | 0.9 | 1.7 | 0.00 | 0.00 | 0.00 | 91 | 1013.5 |
| 20260505040855 | 40 | 333 | 0.0 | 1.7 | 0.00 | 0.00 | 0.00 | 90 | 1013.6 |
| 20260505040354 | 40 | 333 | 0.0 | 1.7 | 0.00 | 0.00 | 0.00 | 90 | 1013.6 |
| 20260505035855 | 40 | 333 | 0.0 | 1.7 | 0.00 | 0.00 | 0.00 | 89 | 1013.5 |
| 20260505035353 | 40 | 333 | 0.0 | 0.9 | 0.00 | 0.00 | 0.00 | 90 | 1013.5 |
| 20260505034854 | 41 | 333 | 0.9 | 0.9 | 0.00 | 0.00 | 0.00 | 90 | 1013.5 |
| 20260505034355 | 41 | 333 | 0.0 | 1.7 | 0.00 | 0.00 | 0.00 | 90 | 1013.6 |
| 20260505033854 | 41 | 315 | 0.9 | 1.7 | 0.00 | 0.00 | 0.00 | 90 | 1013.5 |
| 20260505033354 | 41 | 305 | 0.0 | 1.7 | 0.00 | 0.00 | 0.00 | 90 | 1013.5 |
| 20260505032854 | 41 | 305 | 0.9 | 1.7 | 0.00 | 0.00 | 0.00 | 90 | 1013.4 |
| 20260505032355 | 41 | 314 | 0.9 | 2.6 | 0.00 | 0.00 | 0.00 | 90 | 1013.5 |
| 20260505031854 | 41 | 319 | 0.9 | 1.7 | 0.00 | 0.00 | 0.00 | 90 | 1013.5 |
| 20260505031354 | 41 | 323 | 0.9 | 2.6 | 0.00 | 0.00 | 0.00 | 89 | 1013.6 |
| 20260505030354 | 41 | 293 | 0.9 | 0.9 | 0.00 | 0.00 | 0.00 | 89 | 1013.6 |
| 20260505025854 | 41 | 302 | 0.9 | 2.6 | 0.00 | 0.00 | 0.00 | 89 | 1013.6 |
| 20260505025354 | 41 | 304 | 0.9 | 1.7 | 0.00 | 0.00 | 0.00 | 89 | 1013.7 |
| 20260505024854 | 41 | 296 | 1.7 | 2.6 | 0.00 | 0.00 | 0.00 | 89 | 1013.7 |
| 20260505024354 | 41 | 288 | 1.7 | 2.6 | 0.00 | 0.00 | 0.00 | 89 | 1013.7 |
| 20260505023854 | 41 | 320 | 0.9 | 2.6 | 0.00 | 0.00 | 0.00 | 88 | 1013.6 |
| 20260505022854 | 42 | 259 | 0.9 | 1.7 | 0.00 | 0.00 | 0.00 | 88 | 1013.6 |
| 20260505022354 | 42 | 259 | 0.9 | 2.6 | 0.00 | 0.00 | 0.00 | 87 | 1013.7 |
| 20260505021854 | 42 | 248 | 0.0 | 0.9 | 0.00 | 0.00 | 0.00 | 87 | 1013.6 |
| 20260505021354 | 42 | 269 | 0.9 | 2.6 | 0.00 | 0.00 | 0.00 | 88 | 1013.6 |
| 20260505015855 | 43 | 296 | 0.9 | 2.6 | 0.00 | 0.00 | 0.00 | 87 | 1013.7 |
| 20260505014354 | 43 | 252 | 0.9 | 2.6 | 0.00 | 0.00 | 0.00 | 86 | 1013.8 |
| 20260505013856 | 43 | 239 | 0.9 | 1.7 | 0.00 | 0.00 | 0.00 | 86 | 1013.8 |
| 20260505013354 | 43 | 287 | 0.9 | 2.6 | 0.00 | 0.00 | 0.00 | 86 | 1013.8 |
| 20260505012855 | 43 | 272 | 0.9 | 1.7 | 0.00 | 0.00 | 0.00 | 86 | 1013.9 |
| 20260505012353 | 43 | 301 | 1.7 | 4.3 | 0.00 | 0.00 | 0.00 | 86 | 1013.9 |
| 20260505011854 | 43 | 308 | 0.9 | 1.7 | 0.00 | 0.00 | 0.00 | 85 | 1014.0 |
| 20260505011353 | 43 | 296 | 0.9 | 2.6 | 0.00 | 0.00 | 0.00 | 85 | 1014.0 |
| 20260505010854 | 43 | 244 | 1.7 | 2.6 | 0.00 | 0.00 | 0.00 | 85 | 1014.0 |
| 20260505010354 | 43 | 245 | 0.9 | 2.6 | 0.00 | 0.00 | 0.00 | 84 | 1014.0 |
| 20260505005854 | 44 | 274 | 0.0 | 1.7 | 0.00 | 0.00 | 0.00 | 84 | 1013.9 |
| 20260505005354 | 44 | 301 | 0.0 | 1.7 | 0.00 | 0.00 | 0.00 | 84 | 1013.9 |
| 20260505004854 | 44 | 301 | 0.9 | 2.6 | 0.00 | 0.00 | 0.00 | 84 | 1014.0 |
| 20260505003354 | 44 | 306 | 0.9 | 1.7 | 0.00 | 0.00 | 0.00 | 83 | 1014.1 |
| 20260505002854 | 44 | 306 | 0.9 | 1.7 | 0.00 | 0.00 | 0.00 | 83 | 1014.1 |
| 20260505002354 | 44 | 311 | 1.7 | 7.0 | 0.00 | 0.00 | 0.00 | 83 | 1014.1 |
| 20260505001854 | 44 | 300 | 1.7 | 4.3 | 0.00 | 0.00 | 0.00 | 83 | 1014.2 |
| 20260505001353 | 45 | 293 | 0.9 | 2.6 | 0.00 | 0.00 | 0.00 | 83 | 1014.2 |
| 20260505000854 | 45 | 321 | 0.9 | 2.6 | 0.00 | 0.00 | 0.00 | 83 | 1014.2 |
| 20260504235354 | 45 | 304 | 1.7 | 2.6 | 0.00 | 0.00 | 0.00 | 84 | 1014.2 |
| 20260504234854 | 45 | 325 | 0.9 | 2.6 | 0.00 | 0.00 | 0.00 | 84 | 1014.3 |
| 20260504234354 | 44 | 300 | 0.9 | 2.6 | 0.00 | 0.00 | 0.00 | 83 | 1014.3 |
| 20260504233354 | 45 | 309 | 0.9 | 1.7 | 0.00 | 0.00 | 0.00 | 83 | 1014.3 |
| 20260504232854 | 45 | 309 | 0.9 | 2.6 | 0.00 | 0.00 | 0.00 | 83 | 1014.3 |
| 20260504232353 | 45 | 308 | 0.9 | 2.6 | 0.00 | 0.00 | 0.00 | 83 | 1014.2 |
| 20260504231854 | 45 | 302 | 0.9 | 2.6 | 0.00 | 0.00 | 0.00 | 84 | 1014.2 |
| 20260504231354 | 45 | 292 | 0.0 | 1.7 | 0.00 | 0.00 | 0.00 | 84 | 1014.3 |
| 20260504230937 | 45 | 303 | 0.9 | 2.6 | 0.00 | 0.00 | 0.00 | 84 | 1014.3 |
| 20260504225354 | 45 | 304 | 0.9 | 2.6 | 0.00 | 0.00 | 0.00 | 85 | 1014.3 |
| 20260504224854 | 45 | 238 | 0.9 | 2.6 | 0.00 | 0.00 | 0.00 | 84 | 1014.3 |
| 20260504224354 | 45 | 252 | 0.9 | 2.6 | 0.00 | 0.00 | 0.00 | 85 | 1014.3 |
| 20260504223354 | 46 | 252 | 1.7 | 2.6 | 0.00 | 0.00 | 0.00 | 85 | 1014.4 |
| 20260504222354 | 46 | 277 | 0.9 | 2.6 | 0.00 | 0.00 | 0.00 | 85 | 1014.6 |
| 20260504221854 | 46 | 248 | 0.9 | 2.6 | 0.00 | 0.00 | 0.00 | 84 | 1014.6 |
| 20260504221354 | 46 | 248 | 0.9 | 2.6 | 0.00 | 0.00 | 0.00 | 84 | 1014.6 |
| 20260504220854 | 46 | 231 | 0.9 | 2.6 | 0.00 | 0.00 | 0.00 | 84 | 1014.6 |
| 20260504215853 | 47 | 305 | 0.9 | 2.6 | 0.00 | 0.00 | 0.00 | 84 | 1014.6 |
| 20260504215354 | 47 | 314 | 0.9 | 2.6 | 0.00 | 0.00 | 0.00 | 83 | 1014.5 |
| 20260504214853 | 47 | 304 | 0.9 | 2.6 | 0.00 | 0.00 | 0.00 | 83 | 1014.5 |
| 20260504214354 | 47 | 273 | 0.9 | 2.6 | 0.00 | 0.00 | 0.00 | 83 | 1014.5 |
| 20260504213353 | 48 | 272 | 0.9 | 2.6 | 0.00 | 0.00 | 0.00 | 83 | 1014.5 |
| 20260504212854 | 48 | 270 | 0.9 | 2.6 | 0.00 | 0.00 | 0.00 | 83 | 1014.6 |
| 20260504212354 | 48 | 270 | 0.9 | 2.6 | 0.00 | 0.00 | 0.00 | 83 | 1014.6 |
| 20260504211854 | 48 | 270 | 0.9 | 2.6 | 0.00 | 0.00 | 0.00 | 83 | 1014.7 |
| 20260504211354 | 48 | 270 | 0.9 | 1.7 | 0.00 | 0.00 | 0.00 | 83 | 1014.7 |
| 20260504210853 | 49 | 270 | 0.9 | 2.6 | 0.00 | 0.00 | 0.00 | 83 | 1014.7 |
| 20260504210354 | 49 | 275 | 0.9 | 1.7 | 0.00 | 0.00 | 0.00 | 83 | 1014.7 |
| 20260504205853 | 49 | 275 | 0.9 | 1.7 | 0.00 | 0.00 | 0.00 | 83 | 1014.7 |
| 20260504205354 | 49 | 275 | 0.9 | 1.7 | 0.00 | 0.00 | 0.00 | 83 | 1014.7 |
| 20260504204854 | 49 | 275 | 0.9 | 2.6 | 0.00 | 0.00 | 0.00 | 83 | 1014.7 |
| 20260504204354 | 50 | 275 | 0.0 | 2.6 | 0.00 | 0.00 | 0.00 | 82 | 1014.7 |
| 20260504203853 | 50 | 275 | 0.0 | 1.7 | 0.00 | 0.00 | 0.00 | 82 | 1014.7 |
| 20260504203355 | 50 | 275 | 0.0 | 1.7 | 0.00 | 0.00 | 0.00 | 82 | 1014.6 |
| 20260504202353 | 50 | 275 | 0.9 | 2.6 | 0.00 | 0.00 | 0.00 | 82 | 1014.6 |
| 20260504201854 | 51 | 245 | 0.9 | 2.6 | 0.00 | 0.00 | 0.00 | 82 | 1014.6 |
| 20260504201354 | 51 | 286 | 0.9 | 2.6 | 0.00 | 0.00 | 0.00 | 82 | 1014.6 |
| 20260504200854 | 51 | 270 | 1.7 | 2.6 | 0.00 | 0.00 | 0.00 | 82 | 1014.6 |
| 20260504200354 | 51 | 266 | 0.9 | 2.6 | 0.00 | 0.00 | 0.00 | 82 | 1014.6 |
| 20260504195354 | 51 | 236 | 0.9 | 2.6 | 0.00 | 0.00 | 0.00 | 81 | 1014.5 |
| 20260504194854 | 51 | 236 | 1.7 | 2.6 | 0.00 | 0.00 | 0.00 | 81 | 1014.5 |
| 20260504194354 | 51 | 247 | 1.7 | 2.6 | 0.00 | 0.00 | 0.00 | 81 | 1014.4 |
| 20260504193854 | 52 | 270 | 0.9 | 2.6 | 0.00 | 0.00 | 0.00 | 81 | 1014.3 |
| 20260504192854 | 52 | 264 | 1.7 | 5.2 | 0.00 | 0.00 | 0.00 | 79 | 1014.3 |
| 20260504192353 | 52 | 289 | 0.9 | 5.2 | 0.00 | 0.00 | 0.00 | 79 | 1014.2 |
| 20260504191854 | 53 | 293 | 1.7 | 5.2 | 0.00 | 0.00 | 0.00 | 78 | 1014.1 |
| 20260504191354 | 53 | 266 | 1.7 | 6.1 | 0.00 | 0.00 | 0.00 | 78 | 1014.1 |
| 20260504190854 | 53 | 278 | 1.7 | 6.1 | 0.00 | 0.00 | 0.00 | 77 | 1014.0 |
| 20260504190354 | 54 | 288 | 1.7 | 6.1 | 0.00 | 0.00 | 0.00 | 77 | 1014.1 |